Vorticity
nan nan nan nan nan nan nan nan nan nan nan nan nan nan nan nan nan nan nan nan nan nan nan nan nan nan nan nan nan nan nan nan nan nan nan nan nan nan nan nan nan nan nan nan nan nan nan nan nan nan nan nan nan nan nan nan nan nan nan nan nan nan nan nan nan nan nan nan nan
nan 12 12 12 11 10 9 9 9 9 9 9 8 6 5 6 8 8 9 9 9 8 7 7 8 9 8 7 8 8 8 8 7 7 7 7 8 8 8 8 8 9 9 10 10 10 10 9 9 9 9 9 9 8 9 9 9 9 9 9 10 11 12 13 12 13 13 11 nan
nan 9 9 10 11 10 9 8 8 8 8 10 11 11 11 11 11 11 11 10 9 8 9 9 9 9 8 7 7 8 8 8 7 7 7 7 7 7 8 8 8 8 9 10 9 9 9 9 9 9 9 8 8 8 8 8 9 9 9 10 10 10 10 11 12 13 13 15 nan
nan 8 8 10 11 10 9 9 9 8 8 9 13 15 15 14 13 13 12 12 11 11 10 9 9 8 8 8 8 8 8 8 8 8 7 7 7 8 8 9 8 9 9 9 9 9 9 8 8 8 8 8 8 8 8 8 7 8 9 10 9 9 9 10 11 12 12 13 nan
nan 8 10 10 10 10 10 11 11 10 9 10 11 12 12 12 12 12 11 12 12 11 10 9 9 8 8 8 7 8 8 8 8 9 9 8 9 9 10 11 11 11 10 10 9 9 9 8 8 8 8 8 8 8 8 7 6 6 7 8 8 9 9 9 11 11 11 11 nan
nan 10 11 10 9 11 11 12 11 10 10 10 10 10 9 9 10 11 11 10 10 9 10 9 8 8 7 7 8 8 8 8 9 10 10 10 10 10 11 12 12 12 12 11 11 11 11 11 10 10 9 9 9 9 8 8 7 6 6 6 7 8 9 9 10 10 11 9 nan
nan 9 8 9 8 8 9 10 9 9 10 10 10 10 10 11 11 11 11 10 9 9 9 8 8 9 8 8 8 9 9 10 10 11 11 11 11 11 11 11 11 11 11 11 11 12 12 13 12 11 10 11 11 10 10 10 9 8 7 6 8 9 9 9 9 10 11 11 nan
nan 7 7 8 8 7 7 8 8 8 9 9 9 8 9 10 10 9 9 9 9 9 9 9 9 10 10 10 10 10 10 11 11 11 11 11 10 10 10 10 9 9 9 8 8 10 12 12 11 10 11 11 11 11 11 12 12 11 10 9 9 10 11 12 11 12 14 15 nan
nan 7 7 7 7 8 8 8 8 9 9 9 8 8 8 8 7 7 7 7 8 8 9 9 9 10 11 11 11 11 11 11 11 11 11 11 10 10 10 9 9 8 8 7 6 8 11 11 10 10 10 10 9 10 10 12 12 12 12 13 11 11 11 13 13 14 15 17 nan
nan 6 6 6 7 8 8 8 8 9 9 8 8 8 9 9 8 8 8 7 8 9 10 10 11 10 10 9 10 10 10 10 9 9 10 10 10 10 10 10 9 8 8 7 7 7 9 10 9 9 9 9 8 9 9 10 11 11 12 13 12 11 11 12 12 11 12 14 nan
nan 7 7 8 8 8 8 8 8 8 9 9 9 9 10 10 10 9 10 10 9 10 10 11 10 9 8 7 8 8 9 9 8 8 8 8 9 10 10 10 9 9 9 8 8 8 8 8 7 7 8 8 8 8 9 8 9 10 10 11 11 10 9 9 9 9 9 10 nan
nan 8 9 9 8 8 8 8 8 9 10 10 10 11 11 11 11 10 10 12 11 10 10 10 9 8 8 7 8 8 8 8 8 8 8 8 8 8 9 9 9 9 9 9 9 8 8 7 7 6 7 8 8 8 8 8 8 8 9 9 9 8 8 8 8 8 9 9 nan
nan 9 9 9 8 8 9 9 9 10 11 12 12 11 11 10 10 10 10 10 10 10 9 10 9 8 7 8 8 8 8 8 8 8 8 8 8 8 9 9 8 8 9 9 9 9 9 9 8 8 8 9 9 9 9 9 8 8 7 7 6 6 7 8 8 7 8 8 nan
nan 9 9 8 8 8 9 10 10 11 12 12 11 10 9 9 9 10 9 9 9 9 9 9 8 8 8 8 8 8 9 9 8 8 9 9 9 9 9 9 8 8 9 9 9 10 10 10 9 10 10 10 11 11 12 12 11 11 10 8 8 8 9 10 9 7 7 8 nan
nan 9 8 8 8 9 10 10 11 11 11 10 9 8 8 8 9 9 9 8 8 9 9 9 8 8 8 8 8 9 9 9 9 9 9 9 9 9 9 9 8 8 9 9 9 9 9 9 10 11 11 12 12 12 12 13 15 15 15 14 13 14 14 14 12 10 9 8 nan
nan 9 8 8 9 9 10 10 10 10 10 9 8 9 8 8 8 8 9 9 9 9 10 9 9 8 8 8 9 9 9 10 10 10 9 9 9 9 9 8 8 9 9 10 9 9 9 9 10 11 12 13 12 11 11 12 14 15 16 17 18 19 20 19 17 14 13 12 nan
nan 9 8 9 10 11 11 11 11 11 10 10 9 9 9 9 9 8 8 9 10 10 10 10 9 9 9 8 8 9 10 10 10 10 10 10 9 9 9 8 9 9 10 10 9 9 8 9 10 11 13 13 12 11 11 11 12 13 14 16 17 19 21 21 19 18 17 16 nan
nan 9 9 10 11 12 12 12 12 11 10 9 8 8 9 9 9 9 8 9 10 10 10 10 10 9 9 9 9 9 9 10 10 10 10 9 9 9 9 8 9 10 10 10 10 9 9 9 10 11 12 12 12 11 11 11 11 11 11 12 13 14 16 18 18 18 19 18 nan
nan 9 9 11 12 11 11 10 10 9 8 7 8 8 9 10 10 9 8 8 9 10 10 9 9 9 9 10 9 9 9 10 10 10 9 9 9 9 9 9 9 10 10 10 10 10 10 10 11 11 11 12 11 11 11 10 10 10 10 10 10 11 12 14 16 17 18 17 nan
nan 10 10 10 10 9 9 8 8 8 8 8 8 9 9 10 10 10 9 9 9 9 10 9 8 9 9 9 9 9 9 9 9 9 9 9 9 9 10 10 10 10 10 10 10 10 10 11 11 11 11 11 10 10 10 10 10 10 10 10 9 10 11 12 14 15 16 16 nan
nan 11 11 10 10 9 8 8 9 9 9 9 8 8 9 9 9 9 9 9 9 10 10 9 9 9 9 9 9 9 9 9 9 9 9 8 9 9 10 10 10 9 9 9 10 10 11 11 11 11 11 10 10 10 9 9 9 9 10 10 10 10 10 11 13 13 14 14 nan
nan 12 12 11 10 10 10 10 10 9 8 8 7 8 8 9 9 8 8 9 10 10 10 9 9 10 10 10 9 9 8 8 8 9 8 8 9 9 10 10 10 9 9 9 10 10 11 11 11 11 11 10 10 10 10 10 9 9 9 10 9 9 10 11 11 12 12 13 nan
nan 13 12 10 9 10 10 9 9 8 7 7 7 8 9 9 8 8 8 9 10 10 10 9 9 10 10 10 10 9 9 8 8 8 8 8 8 9 9 9 9 9 9 9 9 10 10 10 10 10 10 10 10 10 10 10 9 9 8 8 8 8 8 9 10 11 11 12 nan
nan 12 10 9 9 8 8 8 7 7 7 7 8 8 9 9 8 9 9 10 10 10 10 9 9 9 9 10 10 10 10 9 8 8 7 8 8 8 8 8 8 9 9 10 9 9 9 9 9 9 10 10 10 10 10 10 9 9 9 8 7 7 7 8 9 10 10 11 nan
nan 10 9 9 9 8 8 9 8 7 7 7 7 8 8 8 8 9 10 10 10 10 9 9 9 9 9 9 10 10 11 10 9 8 7 7 8 8 8 8 8 9 9 10 11 9 8 7 7 8 9 9 10 9 9 9 10 9 9 8 7 7 6 7 8 9 10 11 nan
nan 8 8 8 8 9 10 10 9 8 7 7 7 8 8 7 8 9 10 10 9 8 8 8 8 9 9 9 9 10 10 10 9 9 8 8 8 8 8 8 8 9 9 10 12 11 10 7 6 6 7 8 9 9 9 9 9 9 9 8 8 8 7 7 7 8 9 10 nan
nan 8 8 9 10 10 10 9 9 9 9 8 7 7 7 8 8 9 10 10 9 8 7 7 8 9 8 8 9 8 8 9 10 9 9 9 9 8 8 8 8 8 8 10 14 14 12 10 8 6 5 7 9 9 9 9 9 9 9 9 9 9 9 8 7 8 8 9 nan
nan 9 10 10 10 10 9 9 10 10 9 9 8 7 8 8 9 9 10 10 9 8 7 8 8 8 8 9 9 8 8 8 9 10 10 10 10 9 8 7 8 7 7 10 15 16 16 13 10 8 5 4 6 9 9 9 9 8 9 9 9 9 9 8 8 8 8 8 nan
nan 9 9 9 9 9 10 10 9 9 9 8 8 9 9 8 9 9 10 11 10 8 7 8 9 9 9 10 10 9 9 9 9 10 11 11 10 9 9 8 8 8 9 12 17 18 18 15 12 10 7 3 4 8 10 11 10 10 9 9 10 10 9 9 9 9 9 8 nan
nan 8 8 8 9 10 10 10 9 9 9 9 10 9 8 8 8 9 10 11 10 9 9 9 9 10 10 10 10 10 10 10 11 11 11 11 9 9 9 8 8 10 13 16 18 18 17 15 13 11 9 4 4 8 11 12 12 11 11 10 11 10 10 10 10 9 8 7 nan
nan 8 8 8 8 9 10 10 10 10 9 10 10 8 8 7 8 9 10 10 10 10 10 10 10 10 9 10 10 10 10 11 12 13 13 12 10 9 8 9 9 11 15 18 17 15 14 13 13 11 10 6 5 9 11 12 12 12 12 12 11 11 10 9 9 9 8 8 nan
nan 9 8 8 8 8 9 10 10 10 10 10 8 7 7 8 9 10 11 11 10 10 9 9 10 10 9 9 9 9 9 10 12 14 15 14 11 10 9 9 10 12 15 17 14 12 11 11 12 11 11 8 6 9 11 12 11 12 12 13 12 11 9 8 9 9 9 9 nan
nan 9 8 8 8 7 8 8 9 9 10 8 7 8 8 9 10 11 10 9 9 9 9 10 10 10 9 8 8 9 9 10 12 14 14 14 12 11 9 8 10 12 15 14 11 9 9 10 11 12 12 9 6 8 10 11 11 11 11 12 13 12 11 9 9 9 10 9 nan
nan 9 9 8 8 7 7 8 9 9 9 8 8 9 10 10 10 9 8 8 9 9 10 11 12 12 11 10 10 10 10 11 11 12 13 13 11 10 8 8 10 13 14 13 10 9 9 9 11 12 12 8 7 9 11 11 10 10 11 11 13 13 14 13 12 11 11 9 nan
nan 9 9 8 8 8 8 8 9 8 8 7 8 10 11 10 9 8 8 8 9 10 11 12 12 12 12 12 12 12 11 10 11 12 13 12 10 9 7 7 10 14 15 15 12 11 9 9 10 11 9 7 7 9 11 11 10 10 10 11 11 13 14 16 15 14 13 10 nan
nan 10 9 8 8 9 9 9 9 8 8 8 9 10 11 10 8 8 9 9 10 10 10 11 11 11 11 11 12 12 11 10 11 12 13 12 11 9 7 7 10 15 17 16 12 10 9 9 9 8 6 6 8 10 11 11 10 9 9 9 10 10 13 15 17 17 15 12 nan
nan 10 9 9 8 8 8 9 9 9 8 8 9 11 11 9 8 8 9 10 10 10 10 10 10 11 10 10 10 11 11 11 11 11 13 13 12 10 8 8 10 15 17 15 11 9 8 8 7 6 5 6 9 10 11 10 9 8 8 7 8 8 10 12 15 17 17 15 nan
nan 11 11 10 9 8 8 9 9 8 8 9 10 11 10 9 8 9 10 10 10 11 10 10 10 10 10 10 9 9 10 10 11 11 11 12 13 12 10 9 10 12 15 13 9 7 7 7 6 5 5 7 9 10 10 10 9 8 7 7 7 7 9 10 13 16 18 19 nan
nan 12 12 11 10 9 8 8 8 8 8 9 10 11 10 8 8 10 10 10 11 11 11 11 11 11 11 10 8 7 7 8 9 10 11 13 15 15 12 9 9 10 12 10 7 6 6 6 6 6 6 8 10 10 10 9 9 8 7 7 7 7 8 10 11 14 17 22 nan
nan 12 12 11 10 9 9 8 7 7 8 10 11 10 9 8 8 9 9 10 12 12 12 11 11 11 11 9 7 6 6 6 8 9 11 14 16 15 11 8 8 8 10 9 7 6 6 6 5 6 7 10 12 11 10 9 8 8 7 7 7 8 8 9 10 11 13 20 nan
nan nan nan nan nan nan nan nan nan nan nan nan nan nan nan nan nan nan nan nan nan nan nan nan nan nan nan nan nan nan nan nan nan nan nan nan nan nan nan nan nan nan nan nan nan nan nan nan nan nan nan nan nan nan nan nan nan nan nan nan nan nan nan nan nan nan nan nan nan
CAPE
nan nan nan nan nan nan nan nan nan nan nan nan nan nan nan nan nan nan nan nan nan nan nan nan nan nan nan nan nan nan nan nan nan nan nan nan nan nan nan nan nan nan nan nan nan nan nan nan nan nan nan nan nan nan nan nan nan nan nan nan nan 19 19 215 306 306 217 147 128
nan nan nan nan nan nan nan nan nan nan nan nan nan nan nan nan nan nan nan nan nan nan nan nan nan nan nan nan nan nan nan nan nan nan nan nan nan nan nan nan nan nan nan nan nan nan nan nan nan nan nan nan nan nan nan nan nan nan nan nan nan nan nan nan 63 63 166 178 194
nan nan nan nan nan nan nan nan nan nan nan nan nan nan nan nan nan nan nan nan nan nan nan nan nan nan nan nan nan nan nan nan nan nan nan nan nan nan nan nan nan nan nan nan nan nan nan nan nan nan nan nan nan nan nan nan nan nan nan nan nan nan nan nan nan nan nan 7 88
nan nan nan nan nan nan nan nan nan nan nan nan nan nan nan nan nan nan nan nan nan nan nan nan nan nan nan nan nan nan nan nan nan nan nan nan nan nan nan nan nan nan nan nan nan nan nan nan nan nan nan nan nan nan nan nan nan nan nan nan nan nan nan nan nan nan nan nan nan
nan nan nan nan nan nan nan nan nan nan nan nan nan nan nan nan nan nan nan nan nan nan nan nan nan nan nan nan nan nan nan nan nan nan nan nan nan nan nan nan nan nan nan nan nan nan nan nan nan nan nan nan nan nan nan nan nan nan nan nan nan nan nan nan nan nan nan nan nan
nan nan nan nan nan nan nan nan nan nan nan nan nan nan nan nan nan nan nan nan nan nan nan nan nan nan nan nan nan nan nan nan nan nan nan nan nan nan nan nan nan nan nan nan nan nan nan nan nan nan nan nan nan nan nan nan nan nan nan nan nan nan nan nan nan nan nan nan nan
nan nan nan nan nan nan nan nan nan nan nan nan nan nan nan nan nan nan nan nan nan nan nan nan nan nan nan nan nan nan nan nan nan nan nan nan nan nan nan nan nan nan nan nan nan nan nan nan nan nan nan nan nan nan nan nan nan nan nan nan nan nan nan nan nan nan nan nan nan
nan nan nan nan nan nan nan nan nan nan nan nan nan nan nan nan nan nan nan nan nan nan nan nan nan nan nan nan nan nan nan nan nan nan nan nan nan nan nan nan nan nan nan nan nan nan nan nan nan nan nan nan nan nan nan nan nan nan nan nan nan nan nan nan nan nan nan nan nan
nan nan nan nan nan nan nan nan nan nan nan nan nan nan nan nan nan nan nan nan nan nan nan nan nan nan nan nan nan nan nan nan nan nan nan nan nan nan nan nan nan nan nan nan nan nan nan nan nan nan nan nan nan nan nan nan nan nan nan nan nan nan nan nan nan nan nan nan nan
nan nan nan nan nan nan nan nan nan nan nan nan nan nan nan nan nan nan nan nan nan nan nan nan nan nan nan nan nan nan nan nan nan nan nan nan nan nan nan nan nan nan nan nan nan nan nan nan nan nan nan nan nan nan nan nan nan nan nan nan nan nan nan nan nan nan nan nan nan
nan nan nan nan nan nan nan nan nan nan nan nan nan nan nan nan nan nan nan nan nan nan nan nan nan nan nan nan nan nan nan nan nan nan nan nan nan nan nan nan nan nan nan nan nan nan nan nan nan nan nan nan nan nan nan nan nan nan nan nan nan nan nan nan nan nan nan nan nan
nan nan nan nan nan nan nan nan nan nan nan nan nan nan nan nan nan nan nan nan nan nan nan nan nan nan nan nan nan nan nan nan nan nan nan nan nan nan nan nan nan nan nan nan nan nan nan nan nan nan nan nan nan nan nan nan nan nan nan nan nan nan nan nan nan nan nan nan nan
nan nan nan nan nan nan nan nan nan nan nan nan nan nan nan nan nan nan nan nan nan nan nan nan nan nan nan nan nan nan nan nan nan nan nan nan nan nan nan nan nan nan nan nan nan nan nan nan nan nan nan nan nan nan nan nan nan nan nan nan nan nan nan nan nan nan nan nan nan
nan nan nan nan nan nan nan nan nan nan nan nan nan nan nan nan nan nan nan nan nan nan nan nan nan nan nan nan nan nan nan nan nan nan nan nan nan nan nan nan nan nan nan nan nan nan nan nan nan nan nan nan nan nan nan nan nan nan nan nan nan nan nan nan nan nan nan nan nan
nan nan nan nan nan nan nan nan nan nan nan nan nan nan nan nan nan nan nan nan nan nan nan nan nan nan nan nan nan nan nan nan nan nan nan nan nan nan nan nan nan nan nan nan nan nan nan nan nan nan nan nan nan nan nan nan nan nan nan nan nan nan nan nan nan nan nan nan nan
nan nan nan nan nan nan nan nan nan nan nan nan nan nan nan nan nan nan nan nan nan nan nan nan nan nan nan nan nan nan nan nan nan nan nan nan nan nan nan nan nan nan nan nan nan nan nan nan nan nan nan nan nan nan nan nan nan nan nan nan nan nan nan nan nan nan nan nan nan
nan nan nan nan nan nan nan nan nan nan nan nan nan nan nan nan nan nan nan nan nan nan nan nan nan nan nan nan nan nan nan nan nan nan nan nan nan nan nan nan nan nan nan nan nan nan nan nan nan nan nan nan nan nan nan nan nan nan nan nan nan nan nan nan nan nan nan nan nan
nan nan nan nan nan nan nan nan nan nan nan nan nan nan nan nan nan nan nan nan nan nan nan nan nan nan nan nan nan nan nan nan nan nan nan nan nan nan nan nan nan nan nan nan nan nan nan nan nan nan nan nan nan nan nan nan nan nan nan nan nan nan nan nan nan nan nan nan nan
nan nan nan nan nan nan nan nan nan nan nan nan nan nan nan nan nan nan nan nan nan nan nan nan nan nan nan nan nan nan nan nan nan nan nan nan nan nan nan nan nan nan nan nan nan nan nan nan nan nan nan nan nan nan nan nan nan nan nan nan nan nan nan nan nan nan nan nan nan
nan nan nan nan nan nan nan nan nan nan nan nan nan nan nan nan nan nan nan nan nan nan nan nan nan nan nan nan nan nan nan nan nan nan nan nan nan nan nan nan nan nan nan nan nan nan nan nan nan nan nan nan nan nan nan nan nan nan nan nan nan nan nan nan nan nan nan nan nan
nan nan nan nan nan nan nan nan nan nan nan nan nan nan nan nan nan nan nan nan nan nan nan nan nan nan nan nan nan nan nan nan nan nan nan nan nan nan nan nan nan nan nan nan nan nan nan nan nan nan nan nan nan nan nan nan nan nan nan nan nan nan nan nan nan nan nan nan nan
nan nan nan nan nan nan nan nan nan nan nan nan nan nan nan nan nan nan nan nan nan nan nan nan nan nan nan nan nan nan nan nan nan nan nan nan nan nan nan nan nan nan nan nan nan nan nan nan nan nan nan nan nan nan nan nan nan nan nan nan nan nan nan nan nan nan nan nan nan
nan nan nan nan nan nan nan nan nan nan nan nan nan nan nan nan nan nan nan nan nan nan nan nan nan nan nan nan nan nan nan nan nan nan nan nan nan nan nan nan nan nan nan nan nan nan nan nan nan nan nan nan nan nan nan nan nan nan nan nan nan nan nan nan nan nan nan nan nan
nan nan nan nan nan nan nan nan nan nan nan nan nan nan nan nan nan nan nan nan nan nan nan nan nan nan nan nan nan nan nan nan nan nan nan nan nan nan nan nan nan nan nan nan nan nan nan nan nan nan nan nan nan nan nan nan nan nan nan nan nan nan nan nan nan nan nan nan nan
nan nan nan nan nan nan nan nan nan nan nan nan nan nan nan nan nan nan nan nan nan nan nan nan nan nan nan nan nan nan nan nan nan nan nan nan nan nan nan nan nan nan nan nan 2 2 1 0 nan nan nan nan nan nan nan nan nan nan nan nan nan nan nan nan nan nan nan nan nan
nan nan nan nan nan nan nan nan nan nan nan nan nan nan nan nan nan nan nan nan nan nan nan nan nan nan nan nan nan nan nan nan nan nan nan nan nan nan nan nan nan nan nan nan 3 3 3 2 1 1 nan nan nan nan nan nan nan nan nan nan nan nan nan nan nan nan nan nan nan
nan nan nan nan nan nan nan nan nan nan nan nan nan nan nan nan nan nan nan nan nan nan nan nan nan nan nan nan nan nan nan nan nan nan nan nan nan nan nan nan nan nan nan nan 4 4 6 5 3 3 0 nan nan nan nan nan nan nan nan nan nan nan nan nan nan nan nan nan nan
nan nan nan nan nan nan nan nan nan nan nan nan nan nan nan nan nan nan nan nan nan nan nan nan nan nan nan nan nan nan nan nan nan nan nan nan nan nan nan nan nan nan nan 0 5 5 8 7 4 4 2 nan nan nan nan nan nan nan nan nan nan nan nan nan nan nan nan nan nan
nan nan nan nan nan nan nan nan nan nan nan nan nan nan nan nan nan nan nan nan nan nan nan nan nan nan nan nan nan nan nan nan nan nan nan nan nan nan nan nan nan nan nan 2 8 8 9 8 6 6 3 1 nan nan nan nan nan nan nan nan nan nan nan nan nan nan nan nan nan
nan nan nan nan nan nan nan nan nan nan nan nan nan nan nan nan nan nan nan nan nan nan nan nan nan nan nan nan nan nan nan nan nan nan nan nan nan nan nan nan nan nan nan 4 9 9 9 9 6 6 5 3 nan nan nan nan nan nan nan nan nan nan nan nan nan nan nan nan nan
nan nan nan nan nan nan nan nan nan nan nan nan nan nan nan nan nan nan nan nan nan nan nan nan nan nan nan nan nan nan nan nan nan nan nan nan nan nan nan nan nan nan nan 7 9 9 8 8 5 5 4 3 nan nan nan nan nan nan nan nan nan nan nan nan nan nan nan nan nan
nan nan nan nan nan nan nan nan nan nan nan nan nan nan nan nan nan nan nan nan nan nan nan nan nan nan nan nan nan nan nan nan nan nan nan nan nan nan nan nan nan nan nan 11 10 10 10 6 4 4 4 2 nan nan nan nan nan nan nan nan nan nan nan nan nan nan nan nan nan
nan nan nan nan nan nan nan nan nan nan nan nan nan nan nan nan nan nan nan nan nan nan nan nan nan nan nan nan nan nan nan nan nan nan nan nan nan nan nan nan nan nan nan 14 16 16 11 7 3 3 3 3 nan nan nan nan nan nan nan nan nan nan nan nan nan nan nan nan nan
nan nan nan nan nan nan nan nan nan nan nan nan nan nan nan nan nan nan nan nan nan nan nan nan nan nan nan nan nan nan nan nan nan nan nan nan nan nan nan nan nan 3 3 15 17 17 12 7 3 3 3 2 nan nan nan nan nan nan nan nan nan nan nan nan nan nan nan nan nan
nan nan nan nan nan nan nan nan nan nan nan nan nan nan nan nan nan nan nan nan nan nan nan nan nan nan nan nan nan nan nan nan nan nan nan nan nan nan nan nan nan 8 8 13 14 14 13 11 6 6 2 nan nan nan nan nan nan nan nan nan nan nan nan nan nan nan nan nan nan
nan nan nan nan nan nan nan nan nan nan nan nan nan nan nan nan nan nan nan nan nan nan nan nan nan nan nan nan nan nan nan nan nan nan nan nan nan nan nan nan nan 6 6 13 12 12 13 11 7 7 2 nan nan nan nan nan nan nan nan nan nan nan nan nan nan nan nan nan nan
nan nan nan nan nan nan nan nan nan nan nan nan nan nan nan nan nan nan nan nan nan nan nan nan nan nan nan nan nan nan nan nan nan nan nan nan nan nan nan nan nan 1 1 13 11 11 11 9 4 4 0 nan nan nan nan nan nan nan nan nan nan nan nan nan nan nan nan nan nan
nan nan nan nan nan nan nan nan nan nan nan nan nan nan nan nan nan nan nan nan nan nan nan nan nan nan nan nan nan nan nan nan nan nan nan nan nan nan nan nan nan 0 0 12 9 9 6 6 5 5 nan nan nan nan nan nan nan nan nan nan nan nan nan nan nan nan nan nan nan
nan nan nan nan nan nan nan nan nan nan nan nan nan nan nan nan nan nan nan nan nan nan nan nan nan nan nan nan nan nan nan nan nan nan nan nan nan nan nan nan nan nan nan 7 10 10 8 7 8 8 4 nan nan nan nan nan nan nan nan nan nan nan nan nan nan nan nan nan nan
nan nan nan nan nan nan nan nan nan nan nan nan nan nan nan nan nan nan nan nan nan nan nan nan nan nan nan nan nan nan nan nan nan nan nan nan nan nan nan nan nan nan nan 5 8 8 6 7 11 11 7 nan nan nan nan nan nan nan nan nan nan nan nan nan nan nan nan nan nan
nan nan nan nan nan nan nan nan nan nan nan nan nan nan nan nan nan nan nan nan nan nan nan nan nan nan nan nan nan nan nan nan nan nan nan nan nan nan nan nan nan nan nan 0 6 6 5 8 9 9 5 nan nan nan nan nan nan nan nan nan nan nan nan nan nan nan nan nan nan